Volver al catálogo

STARLINK-5893

ActivoComunicacionesVLEO
NORAD 55952·PAYLOAD·🇺🇸 United States

Lanzado Mar 17, 2023 desde Vandenberg Space Force Base

Loading…

Próximos Pases (próximas 24 horas)

TLE

ActualizadoSource: CelesTrak SupGP

Época: Sep 15, 2026, 02:05 UTC

1 55952C 23037AQ  26258.08729167  .00029190  00000+0  24461-2 0  2581
2 55952  70.0004 147.0339 0002955 273.5507 325.5167 14.98317567    17

Sigue STARLINK-5893 en tiempo real con AllMySat

Download on the App Store